SCP
0 0 0 0 0 0 0 0 0 0 0 0 0 0 0 0 0 0 0 0 0 0 0 0 0 0 0 0 0 0 0 0 0 0 0 0 0 0
0 0 0 0 0 0 0 0 0 0 0 0 0 0 0 0 0 0 0 0 0 0 0 0 0 0 0 0 0 0 0 0 0 0 0 0 0 0
0 0 0 0 0 0 0 0 0 0 0 0 0 0 0 0 0 0 0 0 0 0 0 0 0 0 0 0 0 0 0 0 0 0 0 0 0 0
0 0 0 0 0 0 0 0 0 0 0 0 0 0 0 0 0 0 0 0 0 0 0 0 0 0 0 0 0 0 0 0 0 0 0 0 0 0
0 0 0 0 0 0 0 0 0 0 0 0 0 0 0 0 0 0 0 0 0 0 0 0 0 0 0 0 0 0 0 0 0 0 0 0 0 0
0 0 0 0 0 0 0 0 0 0 0 0 0 0 0 0 0 0 0 0 0 0 0 0 0 0 0 0 0 -0 -0 -0 0 0 0 0 0 0
0 0 0 0 0 0 0 0 0 0 0 0 0 0 0 0 0 0 0 0 0 0 0 0 0 0 0 0 0 -0 -0 0 0 0 0 0 0 0
0 0 0 0 0 0 0 0 0 0 0 0 0 0 0 0 0 0 0 0 0 0 0 0 0 0 0 0 0 0 0 0 0 0 0 0 0 0
0 0 0 0 0 0 0 0 0 0 0 0 0 0 0 0 0 0 0 0 0 0 0 0 0 0 0 0 0 0 0 0 0 0 0 0 0 0
0 0 0 0 0 0 0 0 0 0 0 0 0 0 0 0 0 0 0 0 0 0 0 0 0 0 0 0 0 0 0 0 0 0 0 0 0 0
0 0 0 0 0 0 0 0 0 0 0 0 0 0 0 0 0 0 0 0 0 0 0 0 0 0 0 0 0 0 0 0 0 0 0 0 0 0
0 0 0 0 0 0 0 0 0 0 0 0 0 0 0 0 0 0 0 0 0 0 0 0 0 0 0 0 0 0 0 0 0 0 0 0 0 0
0 0 0 0 0 0 0 0 0 0 0 0 0 0 0 0 0 0 0 0 0 0 0 0 0 0 0 0 0 0 0 0 0 0 0 0 0 0
0 0 0 0 0 0 0 0 0 0 0 0 0 0 0 0 0 0 0 0 0 0 0 0 0 0 0 0 0 0 0 0 0 0 0 0 0 0
0 0 0 0 0 0 0 0 0 0 0 0 0 0 0 0 0 0 0 0 0 0 0 0 0 0 0 0 0 0 0 0 0 0 0 0 0 0
0 0 0 0 0 0 0 0 0 0 0 0 0 0 0 0 0 0 0 0 0 0 0 0 0 0 0 0 0 0 0 0 0 0 0 0 0 0
0 0 0 0 0 0 0 0 0 0 0 0 0 0 0 0 0 0 0 0 0 0 0 0 0 0 0 0 0 0 0 0 0 0 0 0 0 0
0 0 0 0 0 0 0 0 0 0 0 0 0 0 0 0 0 0 0 0 0 0 0 0 0 0 0 0 0 0 0 0 0 0 0 0 -0 0
0 0 0 0 0 0 0 0 0 0 0 0 0 0 0 0 0 0 0 0 0 0 0 0 0 0 0 0 0 0 0 0 0 0 0 0 0 -0
0 0 0 0 0 0 0 0 0 0 0 0 0 0 0 0 0 0 0 0 0 0 0 0 0 0 0 0 0 0 0 0 0 0 0 0 -0 -0
0 0 0 0 0 0 0 0 0 0 0 0 0 0 0 0 0 0 0 0 0 0 0 0 0 0 0 0 0 0 0 0 0 0 0 0 -0 0
0 0 0 0 0 0 0 0 0 0 0 0 0 0 0 0 0 0 0 0 0 0 0 0 0 0 0 0 0 0 0 0 0 -0 0 0 -0 0
0 0 0 0 0 0 0 0 0 0 0 0 0 0 0 0 0 0 0 0 0 0 0 0 0 0 0 0 0 0 0 0 0 -0 0 0 0 -0
Wind_Speed_500mb
23 20 17 17 14 11 7 4 4 9 18 20 23 26 39 41 42 43 48 55 54 52 55 52 43 45 44 42 46 49 49 51 54 54 56 60 61 65
25 21 16 13 9 6 3 5 6 5 7 16 22 34 38 38 40 47 54 56 55 56 55 45 41 39 37 41 46 46 47 50 52 54 58 63 68 69
22 15 10 8 5 5 10 13 15 15 15 21 27 35 38 41 47 54 56 60 63 58 53 48 39 34 39 44 44 44 46 47 48 56 61 65 69 71
15 11 7 5 5 9 14 18 22 24 25 28 33 37 42 49 55 59 59 59 60 57 49 35 38 40 45 44 43 44 48 47 50 59 62 68 70 73
11 7 3 2 8 14 19 23 24 26 29 34 37 41 48 55 60 61 63 63 58 54 48 38 46 47 46 47 48 51 54 44 55 62 67 71 75 79
8 3 3 8 15 20 24 27 30 34 36 36 40 46 54 58 64 69 73 67 63 56 49 46 59 54 51 48 50 54 52 49 61 65 71 76 81 87
3 2 9 16 23 27 30 34 37 38 39 43 47 54 60 64 66 70 73 75 74 57 59 69 66 62 58 55 58 60 53 58 62 68 73 80 87 91
3 9 16 22 25 29 31 32 36 35 41 45 50 57 60 60 62 67 69 75 79 64 78 74 71 69 60 64 63 62 60 59 62 70 79 86 89 90
10 17 21 25 30 30 33 35 33 33 36 45 51 51 48 52 63 67 71 72 72 74 74 82 79 76 72 75 68 65 63 59 66 74 79 85 86 89
14 18 20 25 31 35 36 39 44 44 45 47 43 48 52 58 60 64 67 70 72 68 57 76 79 83 86 88 77 63 70 71 74 73 77 83 85 87
15 18 25 28 29 25 41 47 47 49 50 44 47 53 58 60 58 61 61 62 73 77 66 62 83 93 99 99 85 80 87 83 82 78 76 81 82 80
19 22 25 32 34 31 39 46 51 52 56 57 60 60 59 57 53 52 54 58 60 75 58 72 84 78 101 106 83 100 101 92 87 88 84 83 78 78
20 21 25 31 33 34 32 43 40 53 58 64 68 67 63 59 56 52 50 52 58 64 57 59 81 82 81 97 114 108 105 102 94 94 89 91 81 71
20 25 29 32 35 37 42 45 48 57 63 66 66 66 64 62 59 58 54 52 53 60 59 53 74 74 81 95 105 112 110 103 94 91 96 98 97 90
25 28 30 33 38 42 44 49 54 59 62 65 65 65 65 63 62 62 60 57 59 54 50 50 61 69 72 84 96 109 112 109 84 95 97 99 108 106
23 25 32 39 45 48 47 49 54 56 58 61 64 64 65 66 65 63 68 67 72 70 58 53 59 65 77 80 81 103 101 94 96 94 103 105 110 106
31 36 39 41 43 46 47 48 49 51 55 59 64 68 70 71 70 67 68 70 74 79 78 70 68 72 76 80 83 85 85 91 92 104 102 111 113 105
36 40 42 47 51 54 56 59 57 58 59 62 64 66 71 72 74 72 72 73 79 79 80 76 79 86 89 88 64 70 87 86 100 97 100 110 116 113
38 41 47 50 54 57 61 63 68 65 64 64 67 68 72 74 75 76 76 77 81 80 79 76 76 78 87 105 94 54 66 99 94 101 102 104 110 119
40 43 48 53 57 62 64 69 72 73 71 71 72 71 73 76 78 78 77 79 82 84 86 79 75 75 77 88 103 113 89 83 86 96 107 108 110 101
42 48 52 57 61 65 69 72 74 76 74 73 73 73 73 76 79 78 79 80 82 84 90 87 79 74 76 82 94 109 96 81 81 80 95 101 105 120
49 55 58 60 63 67 72 75 77 76 74 70 69 68 69 70 74 76 77 81 81 83 88 88 81 78 77 80 94 100 102 97 90 93 85 67 80 98
54 59 62 64 67 71 74 75 74 74 71 68 66 66 68 72 72 72 73 72 75 79 81 85 82 79 78 80 85 93 99 100 107 119 119 90 74 81
Wind_Direction_500mb
141 155 159 149 142 142 136 157 217 229 242 250 258 278 299 307 314 318 319 320 322 321 319 322 327 325 326 325 324 325 324 323 322 321 319 320 318 316
151 153 149 127 112 87 56 344 328 293 258 257 272 293 306 312 311 314 316 317 320 321 320 323 325 325 328 326 326 325 323 323 320 320 322 319 317 315
143 127 123 113 82 22 343 331 334 332 318 308 305 308 311 310 313 315 318 319 319 320 318 323 322 328 326 326 325 323 321 321 319 322 320 317 315 312
130 135 122 81 5 333 337 341 335 331 326 319 317 316 315 314 316 317 317 316 318 320 324 321 320 325 331 325 324 323 321 319 322 320 318 314 312 310
134 118 91 349 341 342 340 338 333 329 326 322 319 318 316 317 316 316 317 320 323 325 323 320 327 333 332 330 332 328 326 320 320 318 317 313 311 310
133 135 317 350 346 339 338 332 330 330 327 321 319 320 320 321 321 321 322 323 325 330 326 326 329 333 333 331 332 330 329 320 320 318 316 314 311 309
132 340 348 344 341 332 335 334 335 330 325 321 322 324 325 324 323 323 323 325 326 332 329 326 325 329 332 332 332 334 326 316 318 316 315 313 310 307
20 352 348 340 332 334 336 332 329 329 324 322 323 322 320 322 323 321 321 322 326 328 322 320 324 325 326 324 328 328 325 318 315 315 314 312 309 307
358 349 336 335 333 332 328 323 323 326 322 318 316 318 318 316 312 315 315 314 313 316 320 318 320 318 319 318 321 323 323 316 314 313 312 312 310 308
343 336 330 329 326 326 321 330 329 326 322 321 313 310 310 311 309 310 308 309 308 309 316 312 314 312 314 313 317 324 326 320 315 313 314 314 311 308
330 328 330 329 324 326 323 326 323 321 318 316 313 313 312 313 313 309 310 311 315 315 323 313 313 314 315 316 320 325 324 322 322 317 315 318 316 312
331 329 325 323 327 331 323 320 323 322 320 316 315 317 318 318 316 313 314 313 312 312 315 314 310 319 318 316 310 318 321 322 323 320 322 323 318 312
327 328 326 328 331 328 316 321 329 311 314 315 319 321 320 319 318 317 315 310 306 300 313 309 305 308 302 305 309 316 318 320 322 320 326 331 323 314
339 338 335 330 325 325 324 322 316 321 318 318 318 318 318 318 317 318 316 310 304 303 311 305 296 303 305 305 306 315 315 317 320 320 325 329 328 325
344 339 335 330 330 331 331 329 325 321 319 318 319 319 318 317 317 317 314 312 307 309 310 307 302 305 302 302 307 310 313 318 320 322 324 325 329 324
342 339 340 339 336 332 329 327 323 320 319 318 318 318 317 318 318 317 314 316 313 315 317 317 313 311 309 308 307 308 312 304 320 324 325 324 325 322
348 343 338 332 327 325 324 323 323 322 321 322 322 320 319 317 316 316 315 315 312 316 319 323 319 315 312 310 306 310 311 311 322 325 319 315 319 323
338 335 333 330 327 326 327 326 326 324 322 320 317 315 315 315 315 315 314 314 313 317 318 323 321 320 319 316 311 312 313 308 320 321 321 317 314 319
331 331 329 327 327 326 325 323 323 322 319 317 314 312 311 310 311 311 312 312 312 314 315 318 321 323 321 315 318 312 306 319 319 323 322 313 303 312
326 327 326 326 326 324 323 321 320 319 319 317 314 312 310 308 307 307 308 309 310 311 312 317 321 323 318 312 310 314 324 319 318 313 318 319 318 309
324 327 326 325 324 323 322 321 319 319 320 319 317 316 314 310 308 307 307 307 308 310 311 315 321 319 316 314 308 316 325 330 326 313 316 309 307 308
326 325 327 325 324 323 322 320 320 320 321 321 319 318 319 318 318 316 312 309 309 310 310 314 319 319 319 316 314 319 324 330 335 334 327 305 305 307
324 324 325 326 326 324 321 320 320 320 320 319 318 319 319 321 323 323 322 319 317 315 316 317 318 319 319 318 319 322 325 332 338 338 339 337 320 315
Wind_Speed_850mb
23 20 17 17 14 11 7 4 4 9 18 20 23 26 39 41 42 43 48 55 54 52 55 52 43 45 44 42 46 49 49 51 54 54 56 60 61 65
25 21 16 13 9 6 3 5 6 5 7 16 22 34 38 38 40 47 54 56 55 56 55 45 41 39 37 41 46 46 47 50 52 54 58 63 68 69
22 15 10 8 5 5 10 13 15 15 15 21 27 35 38 41 47 54 56 60 63 58 53 48 39 34 39 44 44 44 46 47 48 56 61 65 69 71
15 11 7 5 5 9 14 18 22 24 25 28 33 37 42 49 55 59 59 59 60 57 49 35 38 40 45 44 43 44 48 47 50 59 62 68 70 73
11 7 3 2 8 14 19 23 24 26 29 34 37 41 48 55 60 61 63 63 58 54 48 38 46 47 46 47 48 51 54 44 55 62 67 71 75 79
8 3 3 8 15 20 24 27 30 34 36 36 40 46 54 58 64 69 73 67 63 56 49 46 59 54 51 48 50 54 52 49 61 65 71 76 81 87
3 2 9 16 23 27 30 34 37 38 39 43 47 54 60 64 66 70 73 75 74 57 59 69 66 62 58 55 58 60 53 58 62 68 73 80 87 91
3 9 16 22 25 29 31 32 36 35 41 45 50 57 60 60 62 67 69 75 79 64 78 74 71 69 60 64 63 62 60 59 62 70 79 86 89 90
10 17 21 25 30 30 33 35 33 33 36 45 51 51 48 52 63 67 71 72 72 74 74 82 79 76 72 75 68 65 63 59 66 74 79 85 86 89
14 18 20 25 31 35 36 39 44 44 45 47 43 48 52 58 60 64 67 70 72 68 57 76 79 83 86 88 77 63 70 71 74 73 77 83 85 87
15 18 25 28 29 25 41 47 47 49 50 44 47 53 58 60 58 61 61 62 73 77 66 62 83 93 99 99 85 80 87 83 82 78 76 81 82 80
19 22 25 32 34 31 39 46 51 52 56 57 60 60 59 57 53 52 54 58 60 75 58 72 84 78 101 106 83 100 101 92 87 88 84 83 78 78
20 21 25 31 33 34 32 43 40 53 58 64 68 67 63 59 56 52 50 52 58 64 57 59 81 82 81 97 114 108 105 102 94 94 89 91 81 71
20 25 29 32 35 37 42 45 48 57 63 66 66 66 64 62 59 58 54 52 53 60 59 53 74 74 81 95 105 112 110 103 94 91 96 98 97 90
25 28 30 33 38 42 44 49 54 59 62 65 65 65 65 63 62 62 60 57 59 54 50 50 61 69 72 84 96 109 112 109 84 95 97 99 108 106
23 25 32 39 45 48 47 49 54 56 58 61 64 64 65 66 65 63 68 67 72 70 58 53 59 65 77 80 81 103 101 94 96 94 103 105 110 106
31 36 39 41 43 46 47 48 49 51 55 59 64 68 70 71 70 67 68 70 74 79 78 70 68 72 76 80 83 85 85 91 92 104 102 111 113 105
36 40 42 47 51 54 56 59 57 58 59 62 64 66 71 72 74 72 72 73 79 79 80 76 79 86 89 88 64 70 87 86 100 97 100 110 116 113
38 41 47 50 54 57 61 63 68 65 64 64 67 68 72 74 75 76 76 77 81 80 79 76 76 78 87 105 94 54 66 99 94 101 102 104 110 119
40 43 48 53 57 62 64 69 72 73 71 71 72 71 73 76 78 78 77 79 82 84 86 79 75 75 77 88 103 113 89 83 86 96 107 108 110 101
42 48 52 57 61 65 69 72 74 76 74 73 73 73 73 76 79 78 79 80 82 84 90 87 79 74 76 82 94 109 96 81 81 80 95 101 105 120
49 55 58 60 63 67 72 75 77 76 74 70 69 68 69 70 74 76 77 81 81 83 88 88 81 78 77 80 94 100 102 97 90 93 85 67 80 98
54 59 62 64 67 71 74 75 74 74 71 68 66 66 68 72 72 72 73 72 75 79 81 85 82 79 78 80 85 93 99 100 107 119 119 90 74 81
Wind_Direction_850mb
141 155 159 149 142 142 136 157 217 229 242 250 258 278 299 307 314 318 319 320 322 321 319 322 327 325 326 325 324 325 324 323 322 321 319 320 318 316
151 153 149 127 112 87 56 344 328 293 258 257 272 293 306 312 311 314 316 317 320 321 320 323 325 325 328 326 326 325 323 323 320 320 322 319 317 315
143 127 123 113 82 22 343 331 334 332 318 308 305 308 311 310 313 315 318 319 319 320 318 323 322 328 326 326 325 323 321 321 319 322 320 317 315 312
130 135 122 81 5 333 337 341 335 331 326 319 317 316 315 314 316 317 317 316 318 320 324 321 320 325 331 325 324 323 321 319 322 320 318 314 312 310
134 118 91 349 341 342 340 338 333 329 326 322 319 318 316 317 316 316 317 320 323 325 323 320 327 333 332 330 332 328 326 320 320 318 317 313 311 310
133 135 317 350 346 339 338 332 330 330 327 321 319 320 320 321 321 321 322 323 325 330 326 326 329 333 333 331 332 330 329 320 320 318 316 314 311 309
132 340 348 344 341 332 335 334 335 330 325 321 322 324 325 324 323 323 323 325 326 332 329 326 325 329 332 332 332 334 326 316 318 316 315 313 310 307
20 352 348 340 332 334 336 332 329 329 324 322 323 322 320 322 323 321 321 322 326 328 322 320 324 325 326 324 328 328 325 318 315 315 314 312 309 307
358 349 336 335 333 332 328 323 323 326 322 318 316 318 318 316 312 315 315 314 313 316 320 318 320 318 319 318 321 323 323 316 314 313 312 312 310 308
343 336 330 329 326 326 321 330 329 326 322 321 313 310 310 311 309 310 308 309 308 309 316 312 314 312 314 313 317 324 326 320 315 313 314 314 311 308
330 328 330 329 324 326 323 326 323 321 318 316 313 313 312 313 313 309 310 311 315 315 323 313 313 314 315 316 320 325 324 322 322 317 315 318 316 312
331 329 325 323 327 331 323 320 323 322 320 316 315 317 318 318 316 313 314 313 312 312 315 314 310 319 318 316 310 318 321 322 323 320 322 323 318 312
327 328 326 328 331 328 316 321 329 311 314 315 319 321 320 319 318 317 315 310 306 300 313 309 305 308 302 305 309 316 318 320 322 320 326 331 323 314
339 338 335 330 325 325 324 322 316 321 318 318 318 318 318 318 317 318 316 310 304 303 311 305 296 303 305 305 306 315 315 317 320 320 325 329 328 325
344 339 335 330 330 331 331 329 325 321 319 318 319 319 318 317 317 317 314 312 307 309 310 307 302 305 302 302 307 310 313 318 320 322 324 325 329 324
342 339 340 339 336 332 329 327 323 320 319 318 318 318 317 318 318 317 314 316 313 315 317 317 313 311 309 308 307 308 312 304 320 324 325 324 325 322
348 343 338 332 327 325 324 323 323 322 321 322 322 320 319 317 316 316 315 315 312 316 319 323 319 315 312 310 306 310 311 311 322 325 319 315 319 323
338 335 333 330 327 326 327 326 326 324 322 320 317 315 315 315 315 315 314 314 313 317 318 323 321 320 319 316 311 312 313 308 320 321 321 317 314 319
331 331 329 327 327 326 325 323 323 322 319 317 314 312 311 310 311 311 312 312 312 314 315 318 321 323 321 315 318 312 306 319 319 323 322 313 303 312
326 327 326 326 326 324 323 321 320 319 319 317 314 312 310 308 307 307 308 309 310 311 312 317 321 323 318 312 310 314 324 319 318 313 318 319 318 309
324 327 326 325 324 323 322 321 319 319 320 319 317 316 314 310 308 307 307 307 308 310 311 315 321 319 316 314 308 316 325 330 326 313 316 309 307 308
326 325 327 325 324 323 322 320 320 320 321 321 319 318 319 318 318 316 312 309 309 310 310 314 319 319 319 316 314 319 324 330 335 334 327 305 305 307
324 324 325 326 326 324 321 320 320 320 320 319 318 319 319 321 323 323 322 319 317 315 316 317 318 319 319 318 319 322 325 332 338 338 339 337 320 315